This is the latest recevied weather packets stored in our database for station/object NW0017. If no packets are shown the sender has not sent any weather packets the latest 1 day(s).
| Time | Temp. | Humidity | Pressure | Rain* | Wind** | Luminosity | Snow |
|---|---|---|---|---|---|---|---|
| 1777983120 | 28.89° C | 93% | 1005.9 hPa | 0 mm | 1.34 m/s, 54° | 0 W/m² | - |
| 1777983060 | 28.89° C | 93% | 1005.9 hPa | 0 mm | 1.34 m/s, 55° | 0 W/m² | - |
| 1777983000 | 28.89° C | 93% | 1005.9 hPa | 0 mm | 1.34 m/s, 51° | 0 W/m² | - |
| 1777982940 | 28.89° C | 93% | 1005.9 hPa | 0 mm | 1.34 m/s, 43° | 0 W/m² | - |
| 1777982880 | 28.89° C | 93% | 1005.9 hPa | 0 mm | 0.89 m/s, 56° | 0 W/m² | - |
| 1777982820 | 28.89° C | 93% | 1005.9 hPa | 0 mm | 0.89 m/s, 56° | 0 W/m² | - |
| 1777982763 | 28.89° C | 93% | 1005.9 hPa | 0 mm | 1.34 m/s, 56° | 0 W/m² | - |
| 1777982700 | 28.89° C | 93% | 1005.9 hPa | 0 mm | 0.89 m/s, 56° | 0 W/m² | - |
| 1777982645 | 28.89° C | 93% | 1005.9 hPa | 0 mm | 0 m/s | 0 W/m² | - |
| 1777982145 | 29.44° C | 92% | 1005.6 hPa | 0 mm | 1.34 m/s, 106° | 0 W/m² | - |
| 1777982087 | 29.44° C | 92% | 1005.6 hPa | 0 mm | 1.34 m/s, 56° | 0 W/m² | - |
| 1777982027 | 29.44° C | 92% | 1005.6 hPa | 0 mm | 1.34 m/s, 60° | 0 W/m² | - |
| 1777981965 | 29.44° C | 92% | 1005.5 hPa | 0 mm | 2.24 m/s, 52° | 0 W/m² | - |
| 1777981905 | 29.44° C | 92% | 1005.5 hPa | 0 mm | 1.34 m/s, 80° | 0 W/m² | - |
| 1777981851 | 29.44° C | 92% | 1005.5 hPa | 0 mm | 1.79 m/s, 61° | 0 W/m² | - |
| 1777981785 | 29.44° C | 92% | 1005.5 hPa | 0 mm | 1.79 m/s, 60° | 0 W/m² | - |
| 1777981730 | 29.44° C | 92% | 1005.5 hPa | 0 mm | 1.79 m/s, 66° | 0 W/m² | - |
| 1777981668 | 29.44° C | 91% | 1005.5 hPa | 0 mm | 1.79 m/s, 48° | 0 W/m² | - |
| 1777981605 | 29.44° C | 91% | 1005.5 hPa | 0 mm | 1.34 m/s, 61° | 0 W/m² | - |
| 1777981580 | 29.44° C | 91% | 1005.5 hPa | 0 mm | 1.34 m/s, 59° | 0 W/m² | - |
| 1777981485 | 29.44° C | 91% | 1005.5 hPa | 0 mm | 0 m/s | 0 W/m² | - |
| 1777981065 | 29.44° C | 91% | 1005.2 hPa | 0 mm | 1.34 m/s, 61° | 0 W/m² | - |
| 1777981007 | 29.44° C | 91% | 1005.1 hPa | 0 mm | 1.34 m/s, 61° | 0 W/m² | - |
| 1777980945 | 29.44° C | 91% | 1005.1 hPa | 0 mm | 1.34 m/s, 65° | 0 W/m² | - |
* Rain latest hour (hover to see other rain measurements)
** Current wind speed in m/s (hover to see current wind gust speed)